STARLINK-11302 [DTC] (61204 NORAD) Tracking and Keplerian Element Data

This shows tracking and keplerian element data for the satellite.

Feedback or suggestion? Click here.




ElementValue
Catalog61204
NameSTARLINK-11302 [DTC]
Epoch Orbit377
Epoch Day286.44456034
Epoch Year2024
RAAN187.4219
Inclination53.1576
Eccentricity0.0001693
Argument of Perigee96.8803
Mean Anonmoly263.241
Mean Motion15.76753551
Decay Rate0.00084733
L11 61204U 24171E 24286.44456034 .00084733 00000+0 51598-3 0 9995
L22 61204 53.1576 187.4219 0001693 96.8803 263.2410 15.76753551 3777



Live tracking and technical data element details for STARLINK-11302 [DTC] (NORAD 61204). STARLINK-11302 [DTC] can be tracked NOW for your location showing map with azimuth and elevation plus other details from your city location.







IsCatalogInMostPopularTable: catalog: 61204, numindb: 24
Update: records affected: 1



GetName: 61204 STARLINK-11302 [DTC]

Hit Count: updated at: Wed, 04 Dec 2024 10:04:39 GMT